Regional Weather Roundup
Issued by NWS

Home | Current Version | Previous Version | Text Only | Print | Product List | Glossary Off
Versions: 1 2 3 4 5 6 7 8 9 10 11 12 13 14 15 16 17 18 19 20 21 22 23 24 25 26 27 28 29 30 31 32 33 34 35 36 37 38 39 40 41 42 43 44 45 46 47 48 49 50

000
ASUS43 KMPX 210601
RWRMN
WEATHER ROUNDUP FOR MINNESOTA
NATIONAL WEATHER SERVICE TWIN CITIES/CHANHASSEN MN
100 AM CDT TUE APR 21 2015


NOTE: "FAIR" INDICATES FEW OR NO CLOUDS BELOW 12,000 FEET WITH NO
SIGNIFICANT WEATHER AND/OR OBSTRUCTIONS TO VISIBILITY. N/A MEANS
CURRENT SKY AND/OR WEATHER CONDITIONS ARE NOT AVAILABLE.

MNZ060>063-068>070-210700-
   Twin Cities Metro

CITY           SKY/WX    TMP DP  RH WIND       PRES   REMARKS
TWIN CITIES    CLOUDY    36  30  79 W12       29.54S
6HR MIN TEMP:  36; 6HR MAX TEMP:  42; 6HR PCP:  0.02;

ST PAUL        CLOUDY    35  30  82 W14       29.55R WCI  26
CRYSTAL        CLOUDY    37  29  72 W14       29.53S
BLAINE         CLOUDY    37  30  75 W16G24    29.52S
LAKEVILLE      MIX PCPN  34  30  86 W15G21    29.55S WCI  24
EDEN PRAIRIE   FLURRIES  37  29  72 W14G24    29.54S
6HR MIN TEMP:  36; 6HR MAX TEMP:  42; 6HR PCP: TRACE;

SOUTH ST PAUL  CLOUDY    36  31  82 NW12G22   29.54R
LAKE ELMO      FLURRIES  34  32  93 W10G16    29.53R WCI  26
$$
MNZ001>005-007-008-013>017-022>024-027-028-210700-
   Northwest Minnesota

CITY           SKY/WX    TMP DP  RH WIND       PRES   REMARKS
BEMIDJI        FLURRIES  30  26  86 NW15G22   29.49S WCI  19
HALLOCK        CLOUDY    34  30  86 NW24G31   29.59S WCI  21
ROSEAU         CLOUDY    32  27  80 NW14      29.51S WCI  22
WARROAD        FLURRIES  30  27  86 NW15G24   29.49S WCI  19
THIEF RVR FALL CLOUDY    30  27  86 NW22      29.56S WCI  17
CROOKSTON      CLOUDY    32  28  86 NW20G28   29.61S WCI  20
FOSSTON        LGT SNOW  28  27  93 NW16G23   29.55S WCI  17
DETROIT LAKES  CLOUDY    32  28  86 NW25G31   29.58S WCI  19
MOORHEAD       CLOUDY    34  28  80 N17G23    29.64S WCI  23
PARK RAPIDS    CLOUDY    36  24  62 NW24G30   29.50S
MAHNOMEN       CLOUDY    30  26  85 NW21G26   29.57S WCI  17
$$
MNZ006-009>011-018-025>026-210700-
   North Central Minnesota

CITY           SKY/WX    TMP DP  RH WIND       PRES   REMARKS
BAUDETTE       LGT SNOW  31  28  89 NW22      29.43S FOG     WCI  18
FLAG ISLAND    CLOUDY    32  28  86 NW23      29.46R WCI  19
INTL FALLS     LGT SNOW  31  29  92 NW14      29.37S FOG     WCI  21
6HR MIN TEMP:  31; 6HR MAX TEMP:  33; 6HR PCP:  0.03;

WASKISH        CLOUDY    30  28  93 W16G30    29.45S WCI  19
BIG FORK       LGT SNOW  30  28  93 W7        29.40F WCI  23
LONGVILLE      CLOUDY    32  27  80 NW10G20   29.46S WCI  24
GRAND RAPIDS   CLOUDY    30  25  80 NW16G24   29.41S WCI  19
CRANE LAKE     CLOUDY    30  30 100 NW1       29.34S
ORR            LGT SNOW  30  28  93 W16       29.32S WCI  19
COOK           LGT SNOW  30  28  93 W13       29.35S WCI  20
$$
MNZ012-019>021-037-210700-
   Northeast Minnesota

CITY           SKY/WX    TMP DP  RH WIND       PRES   REMARKS
DULUTH         LGT SNOW  33  28  81 W20G26    29.34S WCI  21
6HR MIN TEMP:  33; 6HR MAX TEMP:  34; 6HR PCP:  0.01;

ELY            LGT SNOW  32  30  93 W8G18     29.29S WCI  25
HIBBING        FLURRIES  31  26  82 NW14G29   29.37S WCI  21
EVELETH        LGT SNOW  32  30  93 W14       29.36S WCI  22
DULUTH HARBOR  CLOUDY    37  32  81 W20       29.39R
TWO HARBORS    CLOUDY    36  30  80 W10G18    29.30S
SILVER BAY     CLOUDY    36  30  80 W9        29.27R
GRAND MARAIS     N/A     36  32  85 W6        29.24F
G MARAIS ARPRT LGT SNOW  30  27  86 W6        29.20S WCI  24
$$
MNZ029>031-032-039>041-046>048-054>057-064-210700-
   West Central Minnesota

CITY           SKY/WX    TMP DP  RH WIND       PRES   REMARKS
FERGUS FALLS   CLOUDY    34  28  80 N25G32    29.64R WCI  21
WHEATON        MOCLDY    34  27  75 NW15G22   29.67R WCI  24
MORRIS         CLOUDY    36  30  80 NW13      29.61S
ALEXANDRIA     CLOUDY    33  27  78 NW23G33   29.58S WCI  21
ELBOW LAKE     CLOUDY    34  31  89 NW16      29.61S WCI  23
WADENA         MIX PCPN  30  27  86 NW17G29   29.53S WCI  18
GLENWOOD       CLOUDY    34  27  75 NW25G33   29.58S WCI  21
APPLETON       FAIR      36  27  69 NW14G20   29.64S
BENSON         FAIR      32  30  93 N5        29.62S WCI  27
ORTONVILLE     FAIR      36  27  69 NW15      29.66R
MADISON        FAIR      36  27  69 NW10G22   29.66S
WILLMAR        MOCLDY    36  30  80 NW17      29.62R
$$
MNZ033>034-036-042>043-049>051-058-059-210700-
   Central Minnesota

CITY           SKY/WX    TMP DP  RH WIND       PRES   REMARKS
ST CLOUD       CLOUDY    35  25  66 NW22G32   29.53S WCI  23
6HR MIN TEMP:  35; 6HR MAX TEMP:  39; 6HR PCP: TRACE;

SAUK CENTRE    CLOUDY    33  27  77 NW21      29.56S WCI  21
PAYNESVILLE    MOCLDY    32  26  79 W15G21    29.58S WCI  22
AITKIN         DRIZZLE   36  27  69 W9G16     29.44S
PINE RIVER     CLOUDY    30  27  86 NW13G24   29.53S WCI  20
BRAINERD       CLOUDY    33  26  75 NW18G29   29.49S WCI  22
STAPLES        CLOUDY    30  27  86 NW15G22   29.52S WCI  19
LONG PRAIRIE   CLOUDY    32  27  80 W16G25    29.55S WCI  21
LITTLE FALLS   MOCLDY    32  27  80 NW12G17   29.52S WCI  23
LITCHFIELD     CLOUDY    37  30  75 NW15G21   29.59R
BUFFALO        CLOUDY    36  26  68 W20G29    29.56R
MAPLE LAKE     CLOUDY    37  28  72 NW20G25   29.56S
$$
MNZ037-044-045-052-053-210700-
   East Central Minnesota

CITY           SKY/WX    TMP DP  RH WIND       PRES   REMARKS
PRINCETON      CLOUDY    36  27  69 W15       29.51F
MORA           LGT SNOW  32  30  93 W8G17     29.50R WCI  25
CAMBRIDGE      FLURRIES  36  27  69 W15G21    29.48S
RUSH CITY      CLOUDY    33  30  88 W13G20    29.49R WCI  24
MOOSE LAKE     CLOUDY    34  30  86 NW12G20   29.41S WCI  25
HINCKLEY       CLOUDY    34  32  93 W7        29.46S WCI  28
CLOQUET        FLURRIES  32  28  86 W14G21    29.38S WCI  22
MCGREGOR       CLOUDY    32  30  93 W9G16     29.44S WCI  24
$$
MNZ071>073-080-081-089-090-097-098-210700-
   Southwest Minnesota

CITY           SKY/WX    TMP DP  RH WIND       PRES   REMARKS
MONTEVIDEO     FAIR      36  28  75 NW7       29.65S
GRANITE FALLS  FAIR      35  29  78 W10       29.66S WCI  27
CANBY          FAIR      35  27  72 W12       29.69R WCI  26
MARSHALL       FAIR      36  23  60 NW14      29.66S
REDWOOD FALLS  MOCLDY    38  30  73 NW13G23   29.64R
OLIVIA         FAIR      32  28  86 NW12G18   29.62S WCI  23
PIPESTONE      FAIR      34  25  69 NW7       29.69F WCI  28
WORTHINGTON    FAIR      36  23  60 W15       29.70R
JACKSON        FAIR      36  27  69 W13       29.67S
TRACY          FAIR      37  27  68 W9G16     29.67S
SLAYTON        FAIR      35  26  69 W14       29.69S WCI  25
$$
MNZ065>067-074>077-082>085-091>093-210700-
   South Central Minnesota

CITY           SKY/WX    TMP DP  RH WIND       PRES   REMARKS
MANKATO        CLOUDY    37  28  70 NW21G29   29.61S
NEW ULM        CLOUDY    37  30  75 NW17G25   29.63R
ST JAMES       CLOUDY    39  30  70 W16       29.65S
FAIRMONT       FAIR      37  25  60 W15       29.65R
GLENCOE        CLOUDY    38  31  76 NW14      29.58S
FARIBAULT      CLOUDY    37  30  75 W18G24    29.57S
OWATONNA       FAIR      36  30  80 W17G24    29.58S
WASECA         CLOUDY    37  32  81 W17G25    29.61S
ALBERT LEA     CLOUDY    37  32  81 W14G21    29.60S
$$
MNZ078>079-086>088-094>096-210700-
   Southeast Minnesota

CITY           SKY/WX    TMP DP  RH WIND       PRES   REMARKS
ROCHESTER      CLOUDY    35  31  85 W17       29.55S WCI  25
6HR MIN TEMP:  35; 6HR MAX TEMP:  39; 6HR PCP:  0.02;

RED WING       CLOUDY    37  30  75 NW12G17   29.52S
STANTON        LGT RAIN  37  31  79 W15G21    29.55R
DODGE CENTER   MOCLDY    36  32  87 W18G24    29.55S
WINONA         MOCLDY    37  34  87 NW12G23   29.54R
AUSTIN         CLOUDY    37  28  70 W16G29    29.59R
PRESTON        FAIR      35  31  85 W17G25    29.57S WCI  24
$$
ABBREVIATIONS USED IN REMARKS
   TC - TEMPERATURES IN CELSIUS
  WCI - WIND CHILL INDEX
   HX - HEAT INDEX
  VSB - VISIBILITY
$$



USA.gov is the U.S. government's official web portal to all federal, state and local government web resources and services.